| time (UTC) | temp F | wind direction | speed MPH | gust MPH | rain 1hr in | rain 24hr in | rain mn in | humidity % | barometer mb |
| 20260831210346 | 60 | 206 | 3.0 | 7.0 | 0.00 | 0.11 | 0.11 | 83 | 1015.7 |
| 20260831205936 | 60 | 191 | 3.0 | 5.0 | 0.00 | 0.11 | 0.11 | 83 | 1015.6 |
| 20260831205431 | 60 | 195 | 3.0 | 5.0 | 0.00 | 0.11 | 0.11 | 83 | 1015.6 |
| 20260831204926 | 60 | 191 | 2.0 | 5.0 | 0.00 | 0.11 | 0.11 | 83 | 1015.6 |
| 20260831204416 | 60 | 193 | 2.0 | 5.0 | 0.00 | 0.11 | 0.11 | 83 | 1015.5 |
| 20260831203910 | 60 | 189 | 2.0 | 4.0 | 0.00 | 0.11 | 0.11 | 82 | 1015.5 |
| 20260831203757 | 61 | 204 | 2.0 | 5.0 | 0.00 | 0.11 | 0.11 | 82 | 1015.5 |
| 20260831202904 | 61 | 212 | 2.0 | 5.0 | 0.00 | 0.11 | 0.11 | 82 | 1015.5 |
| 20260831202345 | 61 | 194 | 1.0 | 4.0 | 0.00 | 0.11 | 0.11 | 81 | 1015.4 |
| 20260831201841 | 61 | 201 | 1.0 | 3.0 | 0.00 | 0.11 | 0.11 | 81 | 1015.4 |
| 20260831201433 | 61 | 201 | 2.0 | 3.0 | 0.00 | 0.11 | 0.11 | 81 | 1015.3 |
| 20260831201324 | 61 | 191 | 1.0 | 3.0 | 0.00 | 0.11 | 0.11 | 80 | 1015.3 |
| 20260831200415 | 61 | 193 | 1.0 | 3.0 | 0.00 | 0.11 | 0.11 | 79 | 1015.2 |
| 20260831195906 | 61 | 197 | 0.0 | 2.0 | 0.00 | 0.11 | 0.11 | 79 | 1015.1 |
| 20260831195400 | 62 | 203 | 1.0 | 4.0 | 0.00 | 0.11 | 0.11 | 79 | 1015.0 |
| 20260831195252 | 62 | 207 | 1.0 | 4.0 | 0.00 | 0.11 | 0.11 | 78 | 1014.9 |
| 20260831194345 | 62 | 203 | 0.0 | 0.0 | 0.00 | 0.11 | 0.11 | 78 | 1014.9 |
| 20260831193839 | 62 | 206 | 0.0 | 0.0 | 0.00 | 0.11 | 0.11 | 78 | 1014.8 |
| 20260831193333 | 62 | 206 | 1.0 | 3.0 | 0.00 | 0.11 | 0.11 | 77 | 1014.7 |
| 20260831193227 | 62 | 201 | 1.0 | 3.0 | 0.00 | 0.11 | 0.11 | 77 | 1014.8 |
| 20260831192427 | 62 | 197 | 0.0 | 0.0 | 0.00 | 0.11 | 0.11 | 76 | 1014.7 |
| 20260831191913 | 63 | 201 | 0.0 | 0.0 | 0.00 | 0.11 | 0.11 | 75 | 1014.6 |
| 20260831191803 | 63 | 227 | 0.0 | 0.0 | 0.00 | 0.11 | 0.11 | 75 | 1014.6 |
| 20260831190900 | 63 | 227 | 0.0 | 3.0 | 0.00 | 0.11 | 0.11 | 75 | 1014.5 |
| 20260831190352 | 63 | 223 | 0.0 | 3.0 | 0.00 | 0.11 | 0.11 | 74 | 1014.5 |
| 20260831185846 | 63 | 218 | 0.0 | 3.0 | 0.00 | 0.11 | 0.11 | 74 | 1014.5 |
| 20260831185338 | 64 | 200 | 0.0 | 4.0 | 0.00 | 0.11 | 0.11 | 74 | 1014.4 |
| 20260831184831 | 64 | 232 | 0.0 | 4.0 | 0.00 | 0.11 | 0.11 | 73 | 1014.3 |
| 20260831184717 | 65 | 220 | 1.0 | 5.0 | 0.00 | 0.11 | 0.11 | 72 | 1014.1 |
| 20260831184421 | 64 | 239 | 0.0 | 3.0 | 0.00 | 0.11 | 0.11 | 72 | 1014.1 |
| 20260831184414 | 64 | 235 | 0.0 | 3.0 | 0.00 | 0.11 | 0.11 | 73 | 1014.2 |
| 20260831182900 | 65 | 213 | 1.0 | 5.0 | 0.00 | 0.11 | 0.11 | 71 | 1014.0 |
| 20260831182352 | 65 | 232 | 1.0 | 4.0 | 0.00 | 0.11 | 0.11 | 71 | 1013.9 |
| 20260831181844 | 65 | 221 | 0.0 | 4.0 | 0.00 | 0.11 | 0.11 | 71 | 1013.8 |
| 20260831181337 | 65 | 252 | 1.0 | 4.0 | 0.00 | 0.11 | 0.11 | 70 | 1013.6 |
| 20260831180828 | 66 | 6 | 1.0 | 5.0 | 0.00 | 0.11 | 0.11 | 70 | 1013.5 |
| 20260831180714 | 66 | 269 | 1.0 | 6.0 | 0.00 | 0.11 | 0.11 | 69 | 1013.5 |
| 20260831175908 | 66 | 249 | 1.0 | 7.0 | 0.00 | 0.11 | 0.11 | 69 | 1013.4 |
| 20260831175400 | 66 | 295 | 1.0 | 7.0 | 0.00 | 0.11 | 0.11 | 69 | 1013.3 |
| 20260831174850 | 66 | 239 | 0.0 | 4.0 | 0.00 | 0.11 | 0.11 | 69 | 1013.3 |
| 20260831174341 | 67 | 286 | 2.0 | 7.0 | 0.00 | 0.11 | 0.11 | 69 | 1013.2 |
| 20260831173831 | 67 | 265 | 1.0 | 7.0 | 0.00 | 0.11 | 0.11 | 68 | 1013.1 |
| 20260831173324 | 67 | 314 | 1.0 | 6.0 | 0.00 | 0.11 | 0.11 | 68 | 1012.9 |
| 20260831172815 | 67 | 6 | 2.0 | 9.0 | 0.00 | 0.11 | 0.11 | 67 | 1012.9 |
| 20260831172308 | 67 | 276 | 2.0 | 11.0 | 0.00 | 0.11 | 0.11 | 67 | 1012.8 |
| 20260831171854 | 67 | 330 | 2.0 | 11.0 | 0.00 | 0.11 | 0.11 | 67 | 1012.6 |
| 20260831171348 | 68 | 112 | 3.0 | 9.0 | 0.00 | 0.11 | 0.11 | 67 | 1012.6 |
| 20260831171142 | 68 | 170 | 3.0 | 9.0 | 0.00 | 0.11 | 0.11 | 66 | 1012.6 |
| 20260831170330 | 68 | 29 | 3.0 | 9.0 | 0.00 | 0.11 | 0.11 | 66 | 1012.4 |
| 20260831165824 | 68 | 33 | 3.0 | 9.0 | 0.00 | 0.11 | 0.11 | 67 | 1012.4 |
| 20260831165313 | 69 | 193 | 2.0 | 7.0 | 0.00 | 0.11 | 0.11 | 67 | 1012.3 |
| 20260831164808 | 69 | 303 | 2.0 | 9.0 | 0.00 | 0.11 | 0.11 | 67 | 1012.3 |
| 20260831164400 | 69 | 247 | 3.0 | 9.0 | 0.00 | 0.11 | 0.11 | 67 | 1012.3 |
| 20260831163851 | 69 | 302 | 3.0 | 12.0 | 0.00 | 0.11 | 0.11 | 67 | 1012.3 |
| 20260831163343 | 69 | 131 | 3.0 | 12.0 | 0.00 | 0.11 | 0.11 | 67 | 1012.2 |
| 20260831163233 | 69 | 114 | 3.0 | 10.0 | 0.00 | 0.11 | 0.11 | 67 | 1012.2 |
| 20260831162324 | 69 | 179 | 3.0 | 10.0 | 0.00 | 0.11 | 0.11 | 67 | 1012.2 |
| 20260831161812 | 69 | 224 | 3.0 | 10.0 | 0.00 | 0.11 | 0.11 | 68 | 1012.2 |
| 20260831161307 | 69 | 261 | 2.0 | 7.0 | 0.00 | 0.11 | 0.11 | 68 | 1012.2 |
| 20260831160859 | 69 | 347 | 2.0 | 10.0 | 0.00 | 0.11 | 0.11 | 68 | 1012.1 |
| 20260831160652 | 69 | 252 | 3.0 | 10.0 | 0.00 | 0.11 | 0.11 | 67 | 1012.0 |
| 20260831155844 | 69 | 328 | 3.0 | 10.0 | 0.00 | 0.11 | 0.11 | 67 | 1011.9 |
| 20260831155334 | 69 | 228 | 2.0 | 10.0 | 0.00 | 0.11 | 0.11 | 66 | 1011.9 |
| 20260831154826 | 69 | 337 | 3.0 | 10.0 | 0.00 | 0.11 | 0.11 | 67 | 1011.8 |
| 20260831154715 | 69 | 185 | 4.0 | 10.0 | 0.00 | 0.11 | 0.11 | 67 | 1011.8 |
| 20260831153809 | 69 | 203 | 4.0 | 12.0 | 0.00 | 0.11 | 0.11 | 67 | 1011.7 |
| 20260831153259 | 69 | 210 | 5.0 | 12.0 | 0.00 | 0.11 | 0.11 | 66 | 1011.6 |
| 20260831152848 | 70 | 270 | 5.0 | 14.0 | 0.00 | 0.11 | 0.11 | 67 | 1011.6 |
| 20260831152338 | 70 | 280 | 5.0 | 14.0 | 0.00 | 0.11 | 0.11 | 67 | 1011.5 |
| 20260831151831 | 69 | 247 | 5.0 | 12.0 | 0.00 | 0.11 | 0.11 | 67 | 1011.5 |
| 20260831151321 | 69 | 223 | 4.0 | 12.0 | 0.00 | 0.11 | 0.11 | 67 | 1011.4 |
| 20260831150812 | 70 | 67 | 4.0 | 11.0 | 0.00 | 0.11 | 0.11 | 67 | 1011.3 |
| 20260831150558 | 69 | 16 | 3.0 | 13.0 | 0.00 | 0.11 | 0.11 | 70 | 1011.2 |
| 20260831150358 | 69 | 47 | 3.0 | 11.0 | 0.00 | 0.11 | 0.11 | 69 | 1011.4 |
| 20260831145250 | 68 | 251 | 4.0 | 14.0 | 0.00 | 0.11 | 0.11 | 70 | 1011.2 |
| 20260831144840 | 69 | 239 | 4.0 | 14.0 | 0.00 | 0.11 | 0.11 | 70 | 1011.2 |
| 20260831144333 | 69 | 222 | 4.0 | 13.0 | 0.00 | 0.11 | 0.11 | 71 | 1011.1 |
| 20260831143822 | 69 | 326 | 4.0 | 13.0 | 0.00 | 0.11 | 0.11 | 70 | 1010.9 |
| 20260831143617 | 69 | 184 | 4.0 | 13.0 | 0.00 | 0.11 | 0.11 | 71 | 1010.9 |
| 20260831142805 | 69 | 200 | 5.0 | 12.0 | 0.00 | 0.11 | 0.11 | 73 | 1010.8 |
| 20260831142258 | 69 | 221 | 5.0 | 12.0 | 0.00 | 0.11 | 0.11 | 73 | 1010.7 |
| 20260831141747 | 68 | 54 | 4.0 | 10.0 | 0.00 | 0.11 | 0.11 | 74 | 1010.6 |
| 20260831141637 | 68 | 266 | 4.0 | 11.0 | 0.00 | 0.11 | 0.11 | 74 | 1010.5 |
| 20260831140826 | 67 | 277 | 5.0 | 21.0 | 0.00 | 0.11 | 0.11 | 74 | 1010.5 |
| 20260831140318 | 67 | 203 | 5.0 | 21.0 | 0.00 | 0.11 | 0.11 | 73 | 1010.6 |
| 20260831135808 | 68 | 168 | 5.0 | 14.0 | 0.00 | 0.11 | 0.11 | 74 | 1010.6 |
| 20260831135552 | 67 | 210 | 5.0 | 15.0 | 0.00 | 0.11 | 0.11 | 78 | 1010.6 |
| 20260831135352 | 67 | 251 | 5.0 | 14.0 | 0.00 | 0.11 | 0.11 | 75 | 1010.7 |
| 20260831134245 | 66 | 345 | 5.0 | 15.0 | 0.00 | 0.11 | 0.11 | 79 | 1010.5 |
| 20260831133740 | 65 | 235 | 5.0 | 12.0 | 0.00 | 0.11 | 0.11 | 80 | 1010.6 |
| 20260831133328 | 64 | 226 | 6.0 | 17.0 | 0.00 | 0.11 | 0.11 | 78 | 1010.6 |
| 20260831132819 | 65 | 289 | 5.0 | 17.0 | 0.00 | 0.11 | 0.11 | 80 | 1010.5 |
| 20260831132310 | 65 | 174 | 6.0 | 17.0 | 0.00 | 0.11 | 0.11 | 81 | 1010.3 |
| 20260831131803 | 65 | 227 | 7.0 | 17.0 | 0.00 | 0.11 | 0.11 | 80 | 1010.2 |
| 20260831131251 | 66 | 223 | 7.0 | 16.0 | 0.00 | 0.11 | 0.11 | 80 | 1010.1 |
| 20260831130744 | 66 | 218 | 7.0 | 16.0 | 0.00 | 0.11 | 0.11 | 79 | 1009.9 |
| 20260831130235 | 66 | 252 | 7.0 | 15.0 | 0.00 | 0.11 | 0.11 | 78 | 1009.9 |
| 20260831125732 | 67 | 244 | 8.0 | 20.0 | 0.00 | 0.11 | 0.11 | 77 | 1009.9 |
| 20260831125322 | 67 | 197 | 8.0 | 20.0 | 0.00 | 0.11 | 0.11 | 76 | 1009.7 |
| 20260831124815 | 68 | 215 | 9.0 | 20.0 | 0.00 | 0.11 | 0.11 | 75 | 1009.9 |
| 20260831124308 | 68 | 210 | 9.0 | 20.0 | 0.00 | 0.11 | 0.11 | 74 | 1009.8 |
| 20260831123758 | 68 | 203 | 8.0 | 16.0 | 0.00 | 0.11 | 0.11 | 77 | 1009.7 |
| 20260831123446 | 68 | 212 | 8.0 | 17.0 | 0.00 | 0.11 | 0.11 | 78 | 1009.8 |
| 20260831123247 | 68 | 176 | 7.0 | 16.0 | 0.00 | 0.11 | 0.11 | 77 | 1009.8 |
| 20260831122539 | 67 | 228 | 9.0 | 17.0 | 0.00 | 0.11 | 0.11 | 78 | 1009.8 |
| 20260831121728 | 67 | 122 | 8.0 | 21.0 | 0.00 | 0.11 | 0.11 | 79 | 1009.8 |
| 20260831121619 | 67 | 254 | 8.0 | 21.0 | 0.00 | 0.11 | 0.11 | 80 | 1009.7 |
| 20260831121111 | 66 | 250 | 8.0 | 18.0 | 0.00 | 0.11 | 0.11 | 82 | 1009.6 |
| 20260831120301 | 66 | 243 | 7.0 | 18.0 | 0.00 | 0.11 | 0.11 | 82 | 1009.6 |
| 20260831115751 | 65 | 172 | 6.0 | 13.0 | 0.02 | 0.11 | 0.11 | 83 | 1009.7 |
| 20260831115242 | 65 | 92 | 6.0 | 13.0 | 0.05 | 0.11 | 0.11 | 84 | 1009.7 |
| 20260831114735 | 65 | 258 | 6.0 | 17.0 | 0.05 | 0.11 | 0.11 | 85 | 1009.6 |
| 20260831114226 | 65 | 238 | 6.0 | 17.0 | 0.05 | 0.11 | 0.11 | 84 | 1009.6 |
| 20260831113913 | 65 | 237 | 6.0 | 22.0 | 0.05 | 0.11 | 0.11 | 86 | 1009.6 |
| 20260831113310 | 65 | 243 | 7.0 | 22.0 | 0.05 | 0.11 | 0.11 | 85 | 1009.5 |
| 20260831112900 | 64 | 200 | 6.0 | 14.0 | 0.05 | 0.11 | 0.11 | 87 | 1009.5 |
| 20260831112400 | 64 | 234 | 4.0 | 14.0 | 0.05 | 0.11 | 0.11 | 89 | 1009.6 |
| 20260831111842 | 64 | 228 | 3.0 | 12.0 | 0.05 | 0.11 | 0.11 | 90 | 1009.5 |
| 20260831111334 | 63 | 193 | 4.0 | 10.0 | 0.05 | 0.11 | 0.11 | 89 | 1009.5 |
| 20260831110827 | 63 | 158 | 5.0 | 11.0 | 0.05 | 0.11 | 0.11 | 89 | 1009.5 |
| 20260831110630 | 63 | 226 | 7.0 | 16.0 | 0.05 | 0.11 | 0.11 | 87 | 1009.6 |
| 20260831105903 | 64 | 156 | 8.0 | 19.0 | 0.03 | 0.09 | 0.10 | 84 | 1009.6 |
| 20260831105356 | 65 | 265 | 8.0 | 19.0 | 0.00 | 0.06 | 0.07 | 80 | 1009.5 |
| 20260831104851 | 67 | 181 | 7.0 | 14.0 | 0.00 | 0.06 | 0.06 | 77 | 1009.3 |
| 20260831104343 | 67 | 225 | 8.0 | 23.0 | 0.00 | 0.06 | 0.06 | 74 | 1009.1 |
| 20260831103836 | 67 | 184 | 9.0 | 23.0 | 0.00 | 0.06 | 0.06 | 75 | 1009.1 |
| 20260831103530 | 67 | 213 | 9.0 | 20.0 | 0.00 | 0.06 | 0.06 | 74 | 1009.1 |
| 20260831103426 | 67 | 196 | 9.0 | 19.0 | 0.00 | 0.06 | 0.06 | 75 | 1009.1 |
| 20260831102311 | 67 | 195 | 8.0 | 20.0 | 0.00 | 0.06 | 0.06 | 73 | 1008.9 |
| 20260831101801 | 68 | 264 | 7.0 | 17.0 | 0.00 | 0.06 | 0.06 | 72 | 1009.0 |
| 20260831101348 | 67 | 218 | 8.0 | 18.0 | 0.00 | 0.06 | 0.06 | 74 | 1009.0 |
| 20260831100845 | 67 | 214 | 7.0 | 18.0 | 0.00 | 0.06 | 0.06 | 73 | 1009.0 |
| 20260831100336 | 67 | 195 | 6.0 | 12.0 | 0.00 | 0.06 | 0.06 | 75 | 1009.0 |
| 20260831095830 | 67 | 174 | 6.0 | 22.0 | 0.00 | 0.06 | 0.06 | 74 | 1008.9 |
| 20260831095632 | 67 | 162 | 7.0 | 22.0 | 0.00 | 0.06 | 0.06 | 74 | 1009.0 |
| 20260831094810 | 67 | 206 | 7.0 | 18.0 | 0.00 | 0.06 | 0.06 | 74 | 1009.0 |
| 20260831094303 | 67 | 206 | 7.0 | 19.0 | 0.00 | 0.06 | 0.06 | 74 | 1008.9 |
| 20260831094104 | 67 | 208 | 9.0 | 25.0 | 0.00 | 0.06 | 0.06 | 73 | 1009.0 |
| 20260831093342 | 67 | 190 | 11.0 | 25.0 | 0.00 | 0.06 | 0.06 | 74 | 1008.9 |
| 20260831092835 | 67 | 229 | 11.0 | 24.0 | 0.00 | 0.06 | 0.06 | 74 | 1009.1 |
| 20260831092328 | 67 | 226 | 9.0 | 24.0 | 0.00 | 0.06 | 0.06 | 74 | 1009.0 |
| 20260831091824 | 67 | 187 | 10.0 | 24.0 | 0.00 | 0.06 | 0.06 | 75 | 1008.9 |
| 20260831091317 | 67 | 201 | 11.0 | 24.0 | 0.00 | 0.06 | 0.06 | 76 | 1009.0 |
| 20260831090810 | 66 | 210 | 10.0 | 23.0 | 0.00 | 0.06 | 0.06 | 75 | 1008.9 |
| 20260831090301 | 66 | 268 | 9.0 | 20.0 | 0.00 | 0.06 | 0.06 | 76 | 1008.9 |
| 20260831085952 | 66 | 179 | 9.0 | 22.0 | 0.00 | 0.06 | 0.06 | 77 | 1008.8 |
| 20260831084827 | 66 | 160 | 8.0 | 19.0 | 0.00 | 0.06 | 0.06 | 77 | 1008.7 |
| 20260831084324 | 66 | 186 | 8.0 | 19.0 | 0.00 | 0.06 | 0.06 | 77 | 1008.6 |
| 20260831083813 | 66 | 175 | 8.0 | 15.0 | 0.00 | 0.06 | 0.06 | 79 | 1008.5 |
| 20260831083309 | 65 | 208 | 10.0 | 22.0 | 0.00 | 0.06 | 0.06 | 78 | 1008.6 |
| 20260831082759 | 65 | 215 | 9.0 | 22.0 | 0.00 | 0.06 | 0.06 | 78 | 1008.5 |
| 20260831082252 | 65 | 202 | 8.0 | 18.0 | 0.00 | 0.06 | 0.06 | 79 | 1008.6 |
| 20260831082053 | 65 | 252 | 9.0 | 15.0 | 0.00 | 0.06 | 0.06 | 79 | 1008.4 |
| 20260831081331 | 65 | 212 | 9.0 | 17.0 | 0.00 | 0.06 | 0.06 | 80 | 1008.4 |
| 20260831080824 | 64 | 189 | 7.0 | 17.0 | 0.00 | 0.06 | 0.06 | 81 | 1008.5 |
| 20260831080322 | 64 | 196 | 7.0 | 15.0 | 0.00 | 0.06 | 0.06 | 81 | 1008.5 |
| 20260831080316 | 64 | 195 | 7.0 | 15.0 | 0.00 | 0.06 | 0.06 | 81 | 1008.5 |
| 20260831075306 | 64 | 183 | 8.0 | 15.0 | 0.00 | 0.06 | 0.06 | 81 | 1008.6 |
| 20260831074757 | 64 | 209 | 8.0 | 21.0 | 0.00 | 0.06 | 0.06 | 80 | 1008.6 |
| 20260831074557 | 64 | 193 | 8.0 | 21.0 | 0.00 | 0.06 | 0.06 | 81 | 1008.6 |
| 20260831074050 | 64 | 214 | 8.0 | 16.0 | 0.00 | 0.06 | 0.06 | 81 | 1008.5 |
| 20260831073326 | 64 | 188 | 8.0 | 14.0 | 0.00 | 0.06 | 0.06 | 81 | 1008.6 |
| 20260831072819 | 64 | 185 | 6.0 | 13.0 | 0.00 | 0.06 | 0.06 | 82 | 1008.7 |
| 20260831072311 | 64 | 176 | 6.0 | 16.0 | 0.00 | 0.06 | 0.06 | 82 | 1008.5 |
| 20260831071811 | 64 | 167 | 6.0 | 16.0 | 0.00 | 0.06 | 0.06 | 82 | 1008.6 |
| 20260831071805 | 64 | 164 | 7.0 | 16.0 | 0.00 | 0.06 | 0.06 | 82 | 1008.7 |
| 20260831071500 | 64 | 299 | 6.0 | 15.0 | 0.00 | 0.06 | 0.06 | 82 | 1008.6 |
| 20260831070957 | 64 | 175 | 8.0 | 20.0 | 0.00 | 0.06 | 0.06 | 84 | 1008.7 |
| 20260831070953 | 64 | 187 | 6.0 | 15.0 | 0.00 | 0.06 | 0.06 | 83 | 1008.6 |
| 20260831065328 | 64 | 195 | 8.0 | 20.0 | 0.00 | 0.06 | 0.06 | 84 | 1008.7 |
| 20260831064819 | 64 | 190 | 6.0 | 21.0 | 0.00 | 0.06 | 0.06 | 85 | 1008.7 |
| 20260831064309 | 63 | 217 | 6.0 | 21.0 | 0.00 | 0.06 | 0.06 | 86 | 1008.7 |
| 20260831063759 | 63 | 196 | 7.0 | 14.0 | 0.00 | 0.06 | 0.06 | 87 | 1008.7 |
| 20260831063248 | 63 | 189 | 6.0 | 14.0 | 0.00 | 0.06 | 0.06 | 87 | 1008.6 |
| 20260831062738 | 62 | 170 | 6.0 | 16.0 | 0.00 | 0.06 | 0.06 | 87 | 1008.6 |
| 20260831062229 | 62 | 196 | 6.0 | 16.0 | 0.00 | 0.06 | 0.06 | 87 | 1008.5 |
| 20260831061729 | 62 | 143 | 7.0 | 15.0 | 0.00 | 0.06 | 0.06 | 88 | 1008.5 |
| 20260831061724 | 62 | 231 | 6.0 | 12.0 | 0.00 | 0.06 | 0.06 | 87 | 1008.5 |
| 20260831061314 | 62 | 182 | 7.0 | 15.0 | 0.00 | 0.06 | 0.06 | 88 | 1008.4 |
| 20260831060215 | 61 | 189 | 7.0 | 13.0 | 0.00 | 0.06 | 0.06 | 89 | 1008.5 |
| 20260831055748 | 61 | 173 | 6.0 | 11.0 | 0.00 | 0.06 | 0.06 | 89 | 1008.5 |
| 20260831055240 | 61 | 169 | 6.0 | 10.0 | 0.00 | 0.06 | 0.06 | 89 | 1008.5 |
| 20260831054734 | 61 | 212 | 5.0 | 11.0 | 0.00 | 0.06 | 0.06 | 89 | 1008.5 |
| 20260831054224 | 61 | 158 | 5.0 | 11.0 | 0.00 | 0.06 | 0.06 | 89 | 1008.5 |
| 20260831053715 | 60 | 199 | 5.0 | 10.0 | 0.00 | 0.06 | 0.06 | 89 | 1008.4 |
| 20260831053207 | 60 | 170 | 4.0 | 10.0 | 0.00 | 0.06 | 0.06 | 89 | 1008.5 |
| 20260831052759 | 60 | 168 | 5.0 | 10.0 | 0.00 | 0.06 | 0.06 | 89 | 1008.5 |
| 20260831052248 | 60 | 186 | 5.0 | 9.0 | 0.00 | 0.06 | 0.06 | 89 | 1008.5 |
| 20260831051738 | 60 | 183 | 4.0 | 8.0 | 0.00 | 0.06 | 0.06 | 89 | 1008.5 |
| 20260831051230 | 60 | 170 | 4.0 | 9.0 | 0.00 | 0.06 | 0.06 | 89 | 1008.5 |
| 20260831050722 | 60 | 187 | 4.0 | 9.0 | 0.00 | 0.06 | 0.06 | 89 | 1008.5 |
| 20260831050213 | 60 | 199 | 4.0 | 9.0 | 0.00 | 0.06 | 0.06 | 90 | 1008.4 |
| 20260831045711 | 60 | 188 | 3.0 | 9.0 | 0.00 | 0.06 | 0.06 | 90 | 1008.3 |
| 20260831045706 | 60 | 174 | 4.0 | 9.0 | 0.00 | 0.06 | 0.06 | 90 | 1008.4 |
| 20260831044654 | 60 | 195 | 3.0 | 7.0 | 0.00 | 0.06 | 0.06 | 90 | 1008.3 |
| 20260831044649 | 60 | 159 | 3.0 | 8.0 | 0.00 | 0.06 | 0.06 | 90 | 1008.3 |
| 20260831044439 | 60 | 199 | 4.0 | 8.0 | 0.00 | 0.06 | 0.06 | 90 | 1008.3 |
| 20260831043932 | 60 | 192 | 4.0 | 8.0 | 0.00 | 0.06 | 0.06 | 90 | 1008.3 |
| 20260831042709 | 60 | 209 | 4.0 | 8.0 | 0.00 | 0.06 | 0.06 | 90 | 1008.3 |
| 20260831042201 | 60 | 211 | 4.0 | 9.0 | 0.00 | 0.06 | 0.06 | 90 | 1008.2 |
| 20260831041652 | 60 | 193 | 5.0 | 9.0 | 0.00 | 0.06 | 0.06 | 90 | 1008.3 |
| 20260831041144 | 60 | 188 | 5.0 | 10.0 | 0.00 | 0.06 | 0.06 | 90 | 1008.3 |
| 20260831040638 | 60 | 189 | 4.0 | 9.0 | 0.00 | 0.06 | 0.06 | 90 | 1008.3 |
| 20260831040634 | 60 | 195 | 5.0 | 10.0 | 0.00 | 0.06 | 0.06 | 90 | 1008.3 |
| 20260831035716 | 60 | 206 | 4.0 | 8.0 | 0.00 | 0.06 | 0.06 | 90 | 1008.4 |
| 20260831035213 | 60 | 242 | 4.0 | 10.0 | 0.00 | 0.06 | 0.06 | 90 | 1008.5 |
| 20260831035207 | 60 | 199 | 4.0 | 10.0 | 0.00 | 0.06 | 0.06 | 90 | 1008.4 |
| 20260831034149 | 60 | 181 | 4.0 | 10.0 | 0.00 | 0.06 | 0.06 | 90 | 1008.5 |
| 20260831033640 | 60 | 169 | 5.0 | 10.0 | 0.00 | 0.06 | 0.06 | 90 | 1008.5 |
| 20260831033134 | 60 | 206 | 5.0 | 10.0 | 0.00 | 0.06 | 0.06 | 91 | 1008.5 |
| 20260831032630 | 60 | 176 | 5.0 | 10.0 | 0.00 | 0.06 | 0.06 | 91 | 1008.4 |
| 20260831032121 | 60 | 179 | 4.0 | 10.0 | 0.00 | 0.06 | 0.06 | 91 | 1008.5 |
| 20260831031615 | 60 | 171 | 4.0 | 10.0 | 0.00 | 0.06 | 0.06 | 91 | 1008.5 |
| 20260831031213 | 60 | 203 | 4.0 | 7.0 | 0.00 | 0.06 | 0.06 | 91 | 1008.5 |
| 20260831031208 | 60 | 167 | 4.0 | 7.0 | 0.00 | 0.06 | 0.06 | 91 | 1008.5 |
| 20260831030149 | 60 | 214 | 4.0 | 8.0 | 0.00 | 0.06 | 0.06 | 91 | 1008.5 |
| 20260831025642 | 60 | 210 | 3.0 | 8.0 | 0.00 | 0.06 | 0.06 | 91 | 1008.4 |
| 20260831025138 | 60 | 206 | 3.0 | 6.0 | 0.00 | 0.06 | 0.06 | 91 | 1008.5 |
| 20260831025132 | 60 | 182 | 3.0 | 6.0 | 0.00 | 0.06 | 0.06 | 91 | 1008.5 |
| 20260831024116 | 60 | 202 | 3.0 | 6.0 | 0.00 | 0.06 | 0.06 | 91 | 1008.5 |
| 20260831023609 | 60 | 181 | 2.0 | 5.0 | 0.00 | 0.06 | 0.06 | 91 | 1008.5 |
| 20260831023101 | 60 | 181 | 2.0 | 4.0 | 0.00 | 0.06 | 0.06 | 91 | 1008.5 |
| 20260831022556 | 60 | 183 | 2.0 | 6.0 | 0.00 | 0.06 | 0.06 | 90 | 1008.4 |
| 20260831022154 | 61 | 178 | 2.0 | 5.0 | 0.00 | 0.06 | 0.06 | 91 | 1008.4 |
| 20260831022148 | 60 | 191 | 2.0 | 6.0 | 0.00 | 0.06 | 0.06 | 90 | 1008.4 |
| 20260831021842 | 61 | 207 | 3.0 | 6.0 | 0.00 | 0.06 | 0.06 | 90 | 1008.3 |
| 20260831020620 | 61 | 198 | 3.0 | 6.0 | 0.00 | 0.06 | 0.06 | 90 | 1008.3 |
| 20260831020125 | 61 | 192 | 3.0 | 5.0 | 0.00 | 0.06 | 0.06 | 90 | 1008.3 |
| 20260831015604 | 61 | 203 | 2.0 | 5.0 | 0.00 | 0.06 | 0.06 | 90 | 1008.3 |
| 20260831015101 | 62 | 199 | 3.0 | 7.0 | 0.00 | 0.06 | 0.06 | 90 | 1008.4 |
| 20260831015056 | 61 | 189 | 2.0 | 5.0 | 0.00 | 0.06 | 0.06 | 90 | 1008.3 |
| 20260831014550 | 62 | 165 | 3.0 | 5.0 | 0.00 | 0.06 | 0.06 | 90 | 1008.3 |
| 20260831014243 | 62 | 191 | 4.0 | 11.0 | 0.00 | 0.06 | 0.06 | 90 | 1008.4 |
| 20260831013125 | 62 | 193 | 5.0 | 11.0 | 0.00 | 0.06 | 0.06 | 90 | 1008.5 |
| 20260831012622 | 62 | 214 | 4.0 | 10.0 | 0.00 | 0.06 | 0.06 | 91 | 1008.5 |
| 20260831012618 | 62 | 237 | 5.0 | 10.0 | 0.00 | 0.06 | 0.06 | 91 | 1008.5 |
| 20260831011603 | 62 | 185 | 3.0 | 11.0 | 0.00 | 0.06 | 0.06 | 91 | 1008.6 |
| 20260831011056 | 62 | 156 | 2.0 | 11.0 | 0.00 | 0.06 | 0.06 | 92 | 1008.5 |
| 20260831010526 | 62 | 203 | 1.0 | 4.0 | 0.01 | 0.06 | 0.06 | 91 | 1008.4 |
| 20260831010325 | 62 | 185 | 0.0 | 2.0 | 0.01 | 0.06 | 0.06 | 91 | 1008.4 |
| 20260831005536 | 62 | 160 | 1.0 | 3.0 | 0.02 | 0.06 | 0.06 | 91 | 1008.4 |
| 20260831005029 | 62 | 160 | 1.0 | 3.0 | 0.02 | 0.06 | 0.06 | 91 | 1008.3 |
| 20260831004524 | 62 | 176 | 1.0 | 3.0 | 0.06 | 0.06 | 0.06 | 91 | 1008.3 |
| 20260831004119 | 62 | 151 | 1.0 | 5.0 | 0.06 | 0.06 | 0.06 | 91 | 1008.4 |
| 20260831004113 | 62 | 171 | 1.0 | 5.0 | 0.06 | 0.06 | 0.06 | 91 | 1008.4 |
| 20260831003056 | 62 | 172 | 1.0 | 5.0 | 0.06 | 0.06 | 0.06 | 91 | 1008.4 |
| 20260831002552 | 62 | 137 | 2.0 | 5.0 | 0.06 | 0.06 | 0.06 | 91 | 1008.4 |
| 20260831002040 | 62 | 143 | 2.0 | 3.0 | 0.06 | 0.06 | 0.06 | 90 | 1008.5 |
| 20260831001533 | 63 | 168 | 2.0 | 5.0 | 0.06 | 0.06 | 0.06 | 90 | 1008.5 |
| 20260831001024 | 63 | 190 | 2.0 | 5.0 | 0.06 | 0.06 | 0.06 | 90 | 1008.5 |
| 20260831000517 | 63 | 176 | 3.0 | 6.0 | 0.06 | 0.06 | 0.06 | 89 | 1008.6 |
| 20260831000012 | 63 | 194 | 4.0 | 8.0 | 0.06 | 0.06 | 0.06 | 89 | 1008.8 |
| 20260830235603 | 64 | 205 | 1.0 | 4.0 | 0.00 | 0.00 | 0.00 | 87 | 1009.1 |
| 20260830235557 | 64 | 181 | 2.0 | 9.0 | 0.04 | 0.04 | 0.05 | 87 | 1009.1 |
| 20260830235553 | 63 | 187 | 4.0 | 9.0 | 0.05 | 0.05 | 0.05 | 88 | 1008.9 |
| 20260830234032 | 64 | 189 | 2.0 | 4.0 | 0.00 | 0.00 | 0.00 | 86 | 1008.9 |
| 20260830233522 | 63 | 164 | 2.0 | 4.0 | 0.00 | 0.00 | 0.00 | 86 | 1008.8 |
| 20260830233011 | 64 | 151 | 1.0 | 4.0 | 0.00 | 0.00 | 0.00 | 86 | 1008.9 |
| 20260830232508 | 64 | 174 | 0.0 | 4.0 | 0.00 | 0.00 | 0.00 | 86 | 1008.9 |
| 20260830232504 | 64 | 190 | 0.0 | 4.0 | 0.00 | 0.00 | 0.00 | 85 | 1008.9 |
| 20260830231557 | 64 | 174 | 0.0 | 2.0 | 0.00 | 0.00 | 0.00 | 85 | 1008.9 |
| 20260830231053 | 64 | 174 | 0.0 | 2.0 | 0.00 | 0.00 | 0.00 | 85 | 1009.0 |
| 20260830230948 | 64 | 174 | 1.0 | 2.0 | 0.00 | 0.00 | 0.00 | 85 | 1008.9 |
| 20260830230247 | 64 | 152 | 0.0 | 3.0 | 0.00 | 0.00 | 0.00 | 85 | 1009.0 |
| 20260830230048 | 64 | 174 | 0.0 | 3.0 | 0.00 | 0.00 | 0.00 | 85 | 1008.9 |
| 20260830225026 | 64 | 170 | 0.0 | 3.0 | 0.00 | 0.00 | 0.00 | 84 | 1009.0 |
| 20260830224525 | 64 | 142 | 0.0 | 0.0 | 0.00 | 0.00 | 0.00 | 84 | 1009.0 |
| 20260830224520 | 64 | 170 | 0.0 | 3.0 | 0.00 | 0.00 | 0.00 | 84 | 1008.9 |
| 20260830223503 | 64 | 142 | 0.0 | 0.0 | 0.00 | 0.00 | 0.00 | 84 | 1008.9 |
| 20260830222958 | 64 | 192 | 1.0 | 3.0 | 0.00 | 0.00 | 0.00 | 84 | 1009.1 |
| 20260830222952 | 64 | 142 | 0.0 | 0.0 | 0.00 | 0.00 | 0.00 | 84 | 1009.0 |
| 20260830221946 | 64 | 162 | 1.0 | 3.0 | 0.00 | 0.00 | 0.00 | 84 | 1009.2 |
| 20260830221534 | 65 | 190 | 1.0 | 3.0 | 0.00 | 0.00 | 0.00 | 84 | 1009.2 |
| 20260830221530 | 65 | 170 | 1.0 | 3.0 | 0.00 | 0.00 | 0.00 | 84 | 1009.2 |
| 20260830221224 | 65 | 190 | 0.0 | 3.0 | 0.00 | 0.00 | 0.00 | 84 | 1009.3 |
| 20260830220720 | 65 | 154 | 0.0 | 0.0 | 0.00 | 0.00 | 0.00 | 83 | 1009.2 |
| 20260830215502 | 65 | 172 | 0.0 | 2.0 | 0.00 | 0.00 | 0.00 | 83 | 1009.2 |
| 20260830214954 | 65 | 182 | 0.0 | 2.0 | 0.00 | 0.00 | 0.00 | 83 | 1009.2 |
| 20260830214454 | 65 | 154 | 0.0 | 0.0 | 0.00 | 0.01 | 0.00 | 83 | 1009.3 |
| 20260830214448 | 65 | 154 | 0.0 | 0.0 | 0.00 | 0.00 | 0.00 | 83 | 1009.3 |
| 20260830214146 | 65 | 154 | 0.0 | 0.0 | 0.00 | 0.01 | 0.00 | 83 | 1009.3 |
| 20260830212935 | 65 | 154 | 0.0 | 0.0 | 0.00 | 0.01 | 0.00 | 82 | 1009.3 |
| 20260830212931 | 65 | 154 | 0.0 | 0.0 | 0.00 | 0.01 | 0.00 | 82 | 1009.3 |
| 20260830212024 | 65 | 154 | 0.0 | 0.0 | 0.00 | 0.01 | 0.00 | 82 | 1009.3 |
| 20260830211507 | 65 | 154 | 0.0 | 0.0 | 0.00 | 0.01 | 0.00 | 82 | 1009.4 |
| 20260830211006 | 65 | 154 | 0.0 | 0.0 | 0.00 | 0.01 | 0.00 | 82 | 1009.4 |
| 20260830211001 | 65 | 154 | 0.0 | 0.0 | 0.00 | 0.01 | 0.00 | 82 | 1009.4 |